Notices

What's New in latest Release from April 7th, 2021:

- Updated Glossary, including Speed of Maximum Gust, and Total Hourly Precipitation

- Updated national and regional climate services offices contacts and prices information

- Addition of station inventory lists for 1981-2010, 1971-2000, and 1961-1990 Normals.

If you haven't already, please take our survey and provide feedback about our website: https://eccc.sondage-survey.ca/f/LanguageSelection.aspx?s=442ca660-fcf1-47c0-95a9-59707d6fd709

Hourly Data Report for June 18, 2004

SHERBROOKE A
QUEBEC

45°26'00.000" N
71°41'00.000" W
241.40 m
7028124
71610
YSC

Download Data

Hourly Data (June 2004)
Hourly Data Report for June 18, 2004
TIME
LST
Temp Definition
°C
Dew Point Definition
°C
Rel Hum Definition
%
Precip. Amount Definition
mm

Wind Dir Definition
10's deg

Wind Spd Definition
km/h
Visibility Definition
km
Stn Press Definition
kPa
Hmdx Definition


Wind Chill Definition


Weather Definition


00:00 17.2 14.6 85   6 9 15.0 98.50      
01:00 15.0 13.5 91   9 7 12.9 98.49      
02:00 14.2 13.1 93   9 7 8.0 98.48      
03:00 13.8 12.6 92   9 6 9.7 98.48      
04:00 13.4 12.4 94   9 7 6.4 98.51      
05:00 14.2 12.9 92   6 9 8.0 98.54      
06:00 16.1 14.0 87   7 7 15.0 98.56      
07:00 17.1 14.6 85   6 7 24.1 98.58     Mostly Cloudy
08:00 18.4 15.2 82   6 11 24.1 98.56     Cloudy
09:00 21.9 17.2 75   6 7 24.1 98.53 27   Mostly Cloudy
10:00 24.9 18.7 68   10 7 24.1 98.47 31   Mostly Cloudy
11:00 25.4 15.3 54   15 6 24.1 98.39 30   Mostly Cloudy
12:00 26.2 16.5 55   9 4 24.1 98.40 31   Mostly Cloudy
13:00 26.3 17.1 57     0 24.1 98.35 32   Mostly Cloudy
14:00 26.1 16.5 55   17 13 24.1 98.33 31   Mostly Cloudy
15:00 25.8 15.5 53   17 13 24.1 98.28 30   Mostly Cloudy
16:00 24.7 16.4 60   20 4 24.1 98.26 30   Mostly Cloudy
17:00 24.8 17.5 64   16 4 15.0 98.21 30    
18:00 24.0 16.1 61   19 11 15.0 98.20 29    
19:00 21.8 16.3 71   16 15 15.0 98.22 27    
20:00 20.5 17.0 80   14 6 15.0 98.23 26    
21:00 19.1 17.0 88   8 6 15.0 98.16      
22:00 18.7 16.9 89   36 6 15.0 98.12     Rain
23:00 18.7 17.3 92   18 4 4.0 98.12     Rain

Notes on Data Quality.

Legend

  • E = Estimated
  • M = Missing
  • NA = Not Available*
  • [empty] = Indicates an unobserved value
Date modified: